STARLINK-36899, 68058

Orbit data source: Space-Track

STARLINK-36899, 68058 is a payload satellite owned by SpaceX/Seattle (US) in LEO that was launched on Mon, 02 Mar 2026 UTC via an FALCON 9 launch vehicle from the Air Force Eastern Test Range (AFETR). Payload-class satellites include a variety of spacecraft equipped with specific instruments for various scientific and technological missions. These include communications satellites like Starlink; space stations such as the ISS; scientific satellites like the Hubble; Earth observation satellites from companies like Planet Labs, Umbra, and HawkEye 360; GPS; miniature CubeSats for education and research; and military/defense satellites.

Loading next visibility...
Identifier
68058, 2026-041U
Orbit
LEO
Country
Flag of USUS
Related business
Manufacturer
SpaceX/Seattle
Mission
Operational Commercial Communications
Bus & Motor
STARLINK V2MO, Unknown motor
Mass
575 kg wet, ~530 kg dry
Launch date (UTC)
2026-03-02 (4 months ago)
Launch vehicle
FALCON 9
Launch site
Air Force Eastern Test Range (AFETR)
Object type
Payload
Rocket body
Debris
Shape & HBR
Box + 2 Pan, 17.7 m
Radar Cross Section
36.964 m², Large (>1 m²)

Expand to show TLE details & history
Last TLE update: 1 day ago

TLE from 1 day ago
0 STARLINK-36899
1 68058U 26041U   26170.66526115  .00004565  00000-0  14618-3 0  9991
2 68058  53.1611 295.3423 0000969  88.7699 271.3414 15.34394927 17013
Epoch: 2026-06-19T15:57Z
TLE epoch observation values (Epoch: 2026-06-19T15:57:58.563Z)
Latitude
-0.00006°
Longitude
147.95726°
Altitude
463.604 km
Speed
7.636 km/s
True Right ascension
19h 41m 22s
True Declination
0° 00' 00"
Sunlit
Object was in full shadow at epoch
Visualization orbit readout
Latitude
Unknown
Longitude
Unknown
Altitude
Unknown
Speed
Unknown
Apparent Right ascension
Unknown
Apparent Declination
Unknown
Sunlit
N/A
Visualization observer readout
Local Sidereal Time
10:18:32
Azimuth
Unknown
Elevation
Unknown
Doppler factor
Unknown
Orbital elements
Apogee altitude
463.638 km
Perigee altitude
462.312 km
Semi-major axis
6,841.112 km
Eccentricity
0.0001
Inclination
53.1611°
RAAN
295.3423°
Arg. of periapsis
88.7699°
True anomaly
271.3303°
Mean anomaly
271.3414°
Eccentric anomaly
271.33585°
Mean motion
3.83577 °/min
Orbital period
93.85 mins
BSTAR
0.00014618
Loading maneuver chart data...
Computing Atmospheric mass density...
Loading historical data...
Loading historical data...
Loading historical data...
Loading historical data...
Loading historical data...
Loading historical data...
Loading historical data...

Documentation

Showing up to 5 results
|